www.pogodaiklimat.ru

Погода и климат >> Архив погоды >> Япония >> Саппоро


АРХИВ ПОГОДЫ в Саппоро

Время (UTC), дата Ветер
(напр.,м/с)
 
Видим.   Явления Облачность Т
(С)
Тd
(С)
f
(%)
Тe
(С)
Тes
(С)
Комфортность P
(гПа)
Po
(гПа)
Тmin
(С)
Tmax
(С)
R
(мм)
R24
(мм)
S
(см)
19 11.09 ЮВ 2 н/о н/о +15.4 +13.6 89 +15 +15 прохладно 1011.6 1008.5
20 11.09 С 3 н/о н/о +15.2 +13.9 92 +15 +15 прохладно 1013.2 1010.1
21 11.09 З 4 20 км в посл. час ливневой дождь 9/9
[Cu med, cong Ac trans]
+15.4 +13.1 86 +15 +15 прохладно 1012.8 1009.7
23 11.09 СЗ 6 н/о н/о +19.2 +13.4 69 +20 +20 по сезону 1013.2 1010.1
00 12.09 С 4 20 км слаб. ливневой дождь 9/9
[Cu med, cong]
+18.1 +14.6 80 +18 +19 по сезону 1013.6 1010.5 +14.7 7
01 12.09 СЗ 6 н/о н/о +20.2 +14.1 68 +22 +22 комфорт 1013.7 1010.6
02 12.09 С 8 н/о н/о +19.0 +13.4 70 +19 +19 прохладно 1013.8 1010.7
03 12.09 СЗ 9 20 км {ливн. осадки} 8/8
[Cu med, cong]
+21.0 +12.4 58 +23 +23 комфорт 1013.8 1010.7
04 12.09 СЗ 6 н/о н/о +22.0 +13.1 57 +25 +25 комфорт 1013.8 1010.8
05 12.09 СЗ 9 н/о н/о +21.1 +13.6 62 +24 +24 комфорт 1013.9 1010.8
06 12.09 СЗ 8 20 км в посл. час ливневой дождь 8/8
[Cu med, cong]
+20.5 +13.5 64 +22 +23 комфорт 1014.1 1011.0 3
07 12.09 СЗ 6 н/о н/о +20.1 +11.9 59 +22 +22 комфорт 1014.6 1011.5
08 12.09 СЗ 6 н/о н/о +19.5 +12.3 63 +21 +21 комфорт 1014.8 1011.7
09 12.09 СЗ 6 20 км {ливн. осадки} 4/4
[Cu med, cong Ac trans]
+18.9 +12.2 65 +19 +19 по сезону 1015.2 1012.1
10 12.09 СЗ 5 н/о н/о +18.8 +10.6 59 +19 +19 по сезону 1015.9 1012.8
11 12.09 С 5 н/о н/о +18.5 +10.4 59 +19 +19 тепло 1016.6 1013.5
12 12.09 С 3 20 км {ливн. осадки} 3/1
[Cu med, cong Ac trans]
+16.8 +10.9 68 +17 +17 по сезону 1017.1 1014.0 +22.2 3
13 12.09 С 1 н/о н/о +16.3 +11.0 71 +17 +17 по сезону 1017.4 1014.3
14 12.09 С 2 н/о н/о +16.4 +11.1 71 +17 +17 по сезону 1017.6 1014.5
15 12.09 С 2 н/о н/о +15.4 +11.2 76 +16 +16 по сезону 1017.5 1014.4
16 12.09 СЗ 2 н/о н/о +14.6 +10.6 77 +15 +15 по сезону 1017.6 1014.5
17 12.09 СЗ 1 н/о н/о +14.2 +10.8 80 +15 +15 по сезону 1017.8 1014.7
18 12.09 Ю 1 20 км {ливн. осадки} 1/1
[Cu hum]
+13.8 +10.6 81 +14 +14 по сезону 1017.9 1014.7 0.0
19 12.09 ЮВ 2 н/о н/о +14.0 +11.0 82 +14 +14 прохладно 1018.2 1015.0
20 12.09 Ю 1 н/о н/о +13.7 +11.1 84 +15 +15 прохладно 1018.7 1015.5
21 12.09 Ю 1 20 км 3/3
[Cu med, cong]
+13.6 +11.0 84 +15 +15 прохладно 1019.0 1015.8
22 12.09 В 1 н/о н/о +14.6 +11.0 79 +16 +16 холодно 1019.3 1016.2
23 12.09 штиль 0 н/о н/о +17.0 +11.5 70 +17 +17 прохладно 1019.5 1016.4
00 13.09 В 1 20 км 3/3
[Cu med, cong]
+18.6 +11.9 65 +21 +28 комфорт 1019.9 1016.8 +13.1 0.0
01 13.09 С 2 н/о н/о +19.7 +11.7 60 +22 +22 комфорт 1019.8 1016.7
02 13.09 С 3 н/о н/о +21.3 +11.9 55 +23 +23 комфорт 1019.4 1016.3
03 13.09 СЗ 4 20 км 4/4
[Cu med, cong]
+21.1 +11.4 54 +23 +28 комфорт 1019.0 1015.9
04 13.09 СЗ 3 н/о н/о +22.6 +12.0 51 +25 +25 комфорт 1018.6 1015.5
05 13.09 СЗ 3 н/о н/о +22.0 +11.4 51 +24 +24 комфорт 1018.2 1015.1
06 13.09 СВ 1 20 км 1/1
[Cu med, cong]
+21.4 +11.2 52 +23 +29 комфорт 1017.7 1014.6
07 13.09 СЗ 1 н/о н/о +21.6 +11.0 51 +23 +23 комфорт 1017.3 1014.2
08 13.09 Ю 1 н/о н/о +21.4 +10.3 49 +23 +23 комфорт 1017.4 1014.3
09 13.09 Ю 3 20 км 1/1
[Cu hum Ci fib]
+20.3 +11.0 55 +22 +22 комфорт 1018.0 1014.9
10 13.09 ЮВ 3 н/о н/о +18.5 +11.8 65 +19 +19 тепло 1018.9 1015.8
11 13.09 ЮВ 3 н/о н/о +17.9 +11.9 68 +18 +18 по сезону 1018.8 1015.7
12 13.09 ЮВ 3 20 км 9/1
[Sc Ci sp]
+17.9 +11.2 65 +18 +18 по сезону 1018.9 1015.8 +22.7
13 13.09 ЮВ 3 н/о н/о +16.2 +11.4 73 +16 +16 по сезону 1018.6 1015.5
14 13.09 ЮВ 3 н/о н/о +16.1 +11.5 74 +16 +16 по сезону 1017.9 1014.8
15 13.09 ЮВ 4 н/о н/о +16.0 +12.0 77 +15 +15 по сезону 1017.6 1014.5
16 13.09 ЮВ 4 н/о н/о +15.9 +12.3 79 +15 +15 по сезону 1016.9 1013.8
17 13.09 ЮВ 3 н/о н/о +15.6 +12.7 83 +15 +15 по сезону 1016.5 1013.4
18 13.09 ЮВ 4 20 км 8/1
[Cu med, cong Ci sp]
+15.7 +12.6 82 +15 +15 по сезону 1015.6 1012.5
19 13.09 ЮВ 5 н/о н/о +16.4 +12.6 78 +16 +16 по сезону 1015.3 1012.2
21 13.09 ЮВ 5 20 км 9/0
[Cu hum Ac As Ci sp]
+17.6 +13.3 76 +17 +17 по сезону 1015.0 1011.9
23 13.09 ЮВ 4 н/о н/о +19.4 +14.7 74 +21 +21 комфорт 1014.7 1011.6
00 14.09 ЮВ 4 20 км 9/1
[Cu hum Ac As Ci sp]
+20.8 +15.6 72 +24 +27 комфорт 1014.2 1011.1 +15.5
01 14.09 ЮВ 5 н/о н/о +21.5 +15.8 70 +25 +25 комфорт 1014.1 1011.0
02 14.09 ЮВ 6 н/о н/о +23.0 +15.8 64 +27 +27 душно 1013.3 1010.3
03 14.09 ЮВ 7 20 км 9/3
[Cu med, cong Ac trans Ci sp]
+24.0 +14.7 56 +27 +28 жарко 1012.5 1009.5
04 14.09 Ю 7 н/о н/о +23.9 +14.9 57 +27 +27 жарко 1012.0 1009.0
05 14.09 ЮВ 5 н/о н/о +22.9 +14.7 60 +27 +27 душно 1011.6 1008.6
06 14.09 Ю 6 20 км 9/3
[Sc diur, vesp Ac As Ci sp]
+22.5 +14.9 62 +26 +27 жарко 1011.4 1008.4
07 14.09 Ю 5 н/о н/о +21.8 +14.9 65 +25 +25 комфорт 1011.3 1008.3
08 14.09 ЮВ 3 н/о н/о +21.6 +15.7 69 +25 +25 комфорт 1010.9 1007.9
09 14.09 Ю 5 20 км 10/8
[Cu med, cong Ac As]
+21.3 +15.6 70 +25 +25 комфорт 1011.4 1008.4
10 14.09 Ю 5 н/о н/о +21.6 +14.3 63 +25 +25 комфорт 1011.1 1008.1
11 14.09 Ю 5 н/о н/о +21.2 +13.9 63 +24 +24 комфорт 1011.2 1008.2
12 14.09 Ю 3 20 км 10/8
[Cu med, cong Ac As]
+21.2 +13.6 62 +24 +24 комфорт 1011.2 1008.2 +24.9
13 14.09 Ю 4 н/о н/о +21.2 +14.6 66 +24 +24 комфорт 1011.4 1008.4
14 14.09 Ю 4 н/о н/о +21.0 +15.1 69 +24 +24 комфорт 1011.2 1008.2
15 14.09 СЗ 2 н/о н/о +20.6 +15.8 74 +24 +24 комфорт 1011.5 1008.4
16 14.09 штиль 0 н/о н/о +19.6 +17.2 86 +22 +22 комфорт 1011.5 1008.4
17 14.09 Ю 1 н/о н/о +19.6 +17.6 88 +23 +23 комфорт 1010.9 1007.8
18 14.09 З 1 15 км слаб. ливневой дождь 10/8
[Cu med, cong Ac As]
+19.2 +17.5 90 +22 +22 комфорт 1011.0 1007.9 0.0
19 14.09 СЗ 1 н/о н/о +19.1 +17.4 90 +22 +22 комфорт 1011.1 1008.0
20 14.09 С 3 н/о н/о +19.1 +17.8 92 +21 +21 комфорт 1011.6 1008.5
21 14.09 СВ 1 10 км слаб. ливневой дождь 10/10
[Cu med, cong]
+18.4 +17.9 97 +20 +20 тепло 1011.8 1008.7
22 14.09 СВ 1 н/о н/о +18.5 +17.7 95 +20 +20 по сезону 1011.4 1008.3
23 14.09 С 2 н/о н/о +19.0 +18.0 94 +21 +21 комфорт 1012.0 1008.9
00 15.09 С 2 8000 м в посл. час ливневой дождь 9/8
[Cu med, cong]
+20.2 +18.3 89 +24 +26 комфорт 1012.2 1009.1 +18.3 3
01 15.09 С 4 н/о н/о +21.6 +17.8 79 +26 +26 душно 1012.0 1009.0
02 15.09 С 4 н/о н/о +21.8 +18.4 81 +27 +27 душно 1012.0 1009.0
03 15.09 С 2 15 км в посл. час ливневой дождь 9/6
[Cu med, cong Ac trans Ci sp]
+22.6 +18.0 75 +28 +31 душно 1011.7 1008.7
04 15.09 С 3 н/о н/о +22.5 +17.4 73 +27 +27 душно 1011.5 1008.5
05 15.09 С 2 н/о н/о +22.1 +17.0 73 +27 +27 душно 1011.3 1008.3
06 15.09 С 4 15 км {ливн. осадки} 9/3
[Cu med, cong Ac trans Ci sp]
+22.8 +16.4 67 +27 +29 душно 1011.2 1008.2 0.0
07 15.09 СЗ 3 н/о н/о +22.5 +17.0 71 +27 +27 душно 1011.3 1008.3
08 15.09 С 2 н/о н/о +22.0 +16.7 72 +26 +26 душно 1011.7 1008.7
09 15.09 СЗ 4 20 км 4/1
[Cu med, cong Ac trans]
+20.9 +16.7 77 +25 +25 комфорт 1012.0 1008.9
10 15.09 СЗ 2 н/о н/о +20.1 +16.9 82 +24 +24 комфорт 1012.3 1009.2
11 15.09 ЮЗ 1 н/о н/о +19.4 +17.0 86 +23 +23 комфорт 1012.5 1009.4
12 15.09 Ю 1 20 км 1/1
[Cu hum Ac trans]
+19.1 +16.9 87 +22 +22 комфорт 1012.6 1009.5 +23.8 0.0
13 15.09 Ю 2 н/о н/о +18.9 +16.9 88 +21 +21 комфорт 1012.5 1009.4
14 15.09 Ю 2 н/о н/о +18.8 +16.6 87 +20 +20 тепло 1012.2 1009.1
15 15.09 ЮВ 2 н/о н/о +18.9 +16.7 87 +21 +21 комфорт 1012.0 1008.9
16 15.09 ЮВ 2 н/о н/о +19.4 +16.6 84 +22 +22 комфорт 1011.5 1008.4
17 15.09 ЮВ 2 н/о н/о +19.5 +16.2 81 +22 +22 комфорт 1011.0 1007.9
18 15.09 ЮВ 3 20 км 9/9
[Cu med, cong Ac trans]
+19.4 +16.6 84 +22 +22 комфорт 1010.5 1007.4
19 15.09 ЮВ 2 н/о н/о +19.7 +16.9 84 +23 +23 комфорт 1010.0 1006.9
21 15.09 ЮВ 3 20 км 9/4
[Cu med, cong Ac trans Ci sp]
+19.4 +17.7 90 +22 +22 комфорт 1009.7 1006.6
22 15.09 В 3 н/о н/о +20.0 +18.0 88 +23 +23 комфорт 1009.5 1006.4
23 15.09 ЮВ 3 н/о н/о +21.4 +18.4 83 +26 +26 душно 1009.2 1006.2
00 16.09 ЮВ 3 20 км 9/9
[Cu med, cong Ac As]
+23.1 +18.4 75 +29 +30 очень
душно
1009.0 1006.0 +18.6
01 16.09 Ю 4 н/о н/о +23.6 +18.5 73 +28 +28 душно 1008.4 1005.4
02 16.09 ЮВ 3 н/о н/о +22.8 +19.4 81 +29 +29 очень
душно
1007.8 1004.8
03 16.09 ЮВ 3 20 км {ливн. осадки} 10/8 300 м
[Cu med, cong Ac As]
+22.7 +19.5 82 +29 +29 очень
душно
1007.0 1004.0
04 16.09 В 2 н/о н/о +23.4 +19.8 80 +30 +30 очень
душно
1006.0 1003.0
05 16.09 СЗ 4 н/о н/о +22.4 +18.2 77 +28 +28 душно 1005.7 1002.7
06 16.09 С 2 15 км в посл. час ливневой дождь 10/8 300 м
[Cu med, cong Ac As]
+22.0 +19.4 85 +27 +28 душно 1005.6 1002.6 0.0
07 16.09 С 2 н/о н/о +21.7 +19.6 88 +27 +27 душно 1005.2 1002.2
08 16.09 С 3 н/о н/о +21.7 +19.6 88 +27 +27 душно 1005.1 1002.1
09 16.09 СЗ 3 10 км {ливн. осадки} 10/10 300 м
[Frnb]
+21.4 +19.3 88 +26 +26 душно 1004.9 1001.9
10 16.09 СЗ 4 н/о н/о +19.6 +18.8 95 +22 +22 комфорт 1005.2 1002.2
11 16.09 СЗ 4 н/о н/о +19.8 +19.2 96 +23 +23 комфорт 1005.0 1002.0
12 16.09 СЗ 6 10 км слаб. ливневой дождь 10/9 300 м
[Cu med, cong Ac As]
+19.7 +18.9 95 +22 +22 комфорт 1005.2 1002.2 +23.8 3
13 16.09 СЗ 6 н/о н/о +20.1 +18.4 90 +23 +23 комфорт 1005.3 1002.3
14 16.09 СЗ 4 н/о н/о +20.3 +18.6 90 +24 +24 комфорт 1005.5 1002.5
15 16.09 СЗ 5 н/о н/о +19.8 +19.0 95 +23 +23 комфорт 1005.5 1002.5
16 16.09 СЗ 6 н/о н/о +20.0 +15.7 76 +22 +22 комфорт 1006.1 1003.1
17 16.09 СЗ 6 н/о н/о +19.1 +14.4 74 +20 +20 тепло 1006.6 1003.5
18 16.09 СЗ 7 15 км {ливн. осадки} 8/8
[Cu med, cong]
+19.0 +13.9 72 +19 +19 тепло 1006.7 1003.6 1
19 16.09 СЗ 7 н/о н/о +19.3 +14.8 75 +20 +20 тепло 1007.4 1004.3
20 16.09 СЗ 6 н/о н/о +19.0 +13.9 72 +20 +20 тепло 1008.3 1005.2
21 16.09 СЗ 6 20 км 1/1
[Cu med, cong]
+19.3 +13.7 70 +20 +20 тепло 1009.1 1006.0
22 16.09 СЗ 7 н/о н/о +20.0 +13.2 65 +22 +22 комфорт 1009.9 1006.8
23 16.09 СЗ 7 н/о н/о +21.1 +13.0 60 +23 +23 комфорт 1010.2 1007.2
00 17.09 С 6 20 км 3/3
[Cu med, cong]
+21.6 +13.0 58 +24 +26 комфорт 1010.7 1007.7 +18.7 1
01 17.09 СЗ 6 н/о н/о +21.5 +14.4 64 +24 +24 комфорт 1010.9 1007.9
02 17.09 СЗ 6 н/о н/о +22.8 +14.6 60 +26 +26 жарко 1010.9 1007.9
03 17.09 СЗ 7 20 км 8/8
[Cu med, cong]
+21.8 +14.0 61 +25 +25 комфорт 1011.4 1008.4
04 17.09 СЗ 6 н/о н/о +22.0 +13.9 60 +25 +25 комфорт 1011.6 1008.6
05 17.09 СЗ 5 н/о н/о +21.9 +14.1 61 +25 +25 комфорт 1011.9 1008.9
06 17.09 СЗ 6 20 км 4/4
[Cu med, cong]
+21.0 +12.7 59 +23 +24 комфорт 1012.5 1009.4
07 17.09 СЗ 6 н/о н/о +20.6 +12.1 58 +23 +23 комфорт 1013.0 1009.9
08 17.09 СЗ 4 н/о н/о +19.7 +12.2 62 +21 +21 комфорт 1013.5 1010.4
09 17.09 СЗ 4 20 км 8/3
[Cu hum Ci sp]
+18.9 +11.7 63 +20 +20 тепло 1013.8 1010.7
10 17.09 З 4 н/о н/о +18.0 +11.8 67 +18 +18 тепло 1014.2 1011.1
11 17.09 З 2 н/о н/о +17.5 +11.3 67 +18 +18 тепло 1014.5 1011.4
12 17.09 СЗ 2 20 км 9/0
[Ci sp]
+17.0 +10.8 67 +18 +18 тепло 1014.7 1011.6 +23.1
13 17.09 З 2 н/о н/о +16.4 +10.1 66 +17 +17 тепло 1014.6 1011.5
14 17.09 В 1 н/о н/о +16.1 +9.5 65 +18 +18 тепло 1014.6 1011.5
15 17.09 Ю 2 н/о н/о +15.5 +10.9 74 +15 +15 по сезону 1014.4 1011.3
16 17.09 Ю 1 н/о н/о +15.4 +10.6 73 +16 +16 тепло 1014.0 1010.9
17 17.09 СЗ 1 н/о н/о +15.0 +10.6 75 +16 +16 тепло 1013.8 1010.7
18 17.09 З 1 20 км 10/0
[Cs]
+14.6 +10.8 78 +15 +15 по сезону 1013.3 1010.2
19 17.09 Ю 2 н/о н/о +14.3 +10.1 76 +14 +14 прохладно 1013.2 1010.1
20 17.09 В 1 н/о н/о +13.8 +9.7 76 +15 +15 по сезону 1013.3 1010.2
21 17.09 В 1 20 км 9/0
[Ac As Ci sp]
+13.8 +8.2 69 +14 +14 прохладно 1012.7 1009.6
23 17.09 ЮВ 3 н/о н/о +15.7 +8.7 63 +15 +15 прохладно 1012.3 1009.2
00 18.09 ЮВ 4 20 км 10/0
[Ac As]
+16.2 +9.9 66 +15 +17 прохладно 1011.5 1008.4 +13.6
01 18.09 Ю 2 н/о н/о +18.1 +11.9 67 +19 +19 по сезону 1010.8 1007.7
02 18.09 ЮВ 4 н/о н/о +19.2 +12.2 64 +20 +20 по сезону 1009.3 1006.2
03 18.09 Ю 6 20 км 9/5
[Cu med, cong Ac As Ci sp]
+20.3 +12.8 62 +22 +24 комфорт 1009.3 1006.2
04 18.09 ЮВ 4 н/о н/о +20.6 +12.8 61 +23 +23 комфорт 1008.8 1005.8
05 18.09 ЮВ 5 н/о н/о +22.3 +13.1 56 +25 +25 комфорт 1008.0 1005.0
06 18.09 Ю 7 20 км 5/3
[Cu med, cong Ac As Ci sp]
+22.6 +13.1 55 +26 +26 жарко 1006.9 1003.9
07 18.09 Ю 7 н/о н/о +22.2 +13.6 58 +25 +25 комфорт 1006.3 1003.3
08 18.09 ЮВ 5 н/о н/о +21.3 +14.2 64 +24 +24 комфорт 1005.5 1002.5
09 18.09 ЮВ 6 20 км 9/9
[Cu med, cong Ac As]
+20.5 +13.7 65 +23 +23 комфорт 1005.6 1002.6
10 18.09 СЗ 3 н/о н/о +19.6 +14.9 74 +22 +22 комфорт 1006.9 1003.8
11 18.09 СЗ 4 н/о н/о +17.5 +14.6 83 +17 +17 по сезону 1008.2 1005.1
12 18.09 СЗ 6 20 км {ливн. осадки} 9/9
[Cu med, cong]
+17.2 +9.4 60 +16 +16 по сезону 1008.6 1005.5 +22.9 1
13 18.09 СЗ 4 н/о н/о +16.4 +7.9 57 +16 +16 по сезону 1009.2 1006.1
14 18.09 СЗ 4 н/о н/о +15.5 +5.4 51 +15 +15 по сезону 1009.7 1006.6
15 18.09 СЗ 6 н/о н/о +14.4 +5.0 53 +13 +13 прохладно 1010.2 1007.1
16 18.09 СЗ 4 н/о н/о +13.7 +4.3 53 +13 +13 по сезону 1009.9 1006.8
17 18.09 СЗ 2 н/о н/о +12.8 +3.2 52 +13 +13 по сезону 1010.2 1007.1
18 18.09 З 3 20 км 6/6
[Cu med, cong]
+12.5 +3.5 54 +11 +11 прохладно 1010.2 1007.1
19 18.09 ЮЗ 4 н/о н/о +11.9 +3.9 58 +10 +10 тепло 1010.9 1007.7

 

Местоположение метеостанции Саппоро (Япония): широта 43.07 долгота 141.33 высота над уровнем моря 26 м.

В архиве по умолчанию представлена погода в Саппоро за последнюю неделю. Архивные данные за месяц целиком и за предыдущие месяцы, начиная с января 2011 года, Вы можете получить, выбрав интересующий диапазон дат из раскрывающегося списка и нажав кнопку "Ввод!".


*Определитесь, кто Вы:
робот инопланетянин человек

Внимание! Время в таблицах - всемирное. Для получения местного времени необходимо прибавить поправку, которая равна 9 ч.

Смотрите также архив погоды в соседних городах и на ближайших метеорологических станциях:

Погода в Отару (Япония) (29 км)
Погода в Ивамидзаве (Япония) (40 км)
Погода в Куттяне (Япония) (51 км)
Погода в Томакомае (Япония) (53 км)
Погода в Муроране (Япония) (88 км)
Погода в Суццу (Япония) (96 км)
Погода в Румои (Япония) (101 км)
Погода в Асахикаве (Япония) (114 км)
Погода в Хакодате (Япония) (147 км)
Погода в Хаборо (Япония) (148 км)

Пояснения к столбцам:

Ветер - указаны скорость ветра в м/с - средняя за 10 мин, порывы в срок и между сроками (в фигурных скобках) и направление, откуда дует ветер: С - северный, СВ - северо-восточный, В - восточный, ЮВ - юго-восточный, Ю - южный, ЮЗ - юго-западный, З - западный, СЗ - северо-западный.
Видимость - горизонтальная дальность видимости в метрах или километрах. При видимости от 1 до 10 км при отсутствии осадков обычно наблюдается дымка, при ухудшении видимости до 1 км и менее - туман. В сухую погоду видимость может ухудшаться дымом, пылью или мглою.
Явления - указаны атмосферные явления, наблюдавшиеся в срок или в последний час перед сроком; фигурными скобками обозначены явления, наблюдавшиеся между сроками (за 1-3 часа до срока); квадратными скобками обозначены град или гололедные отложения с указанием их диаметра в мм.
Облачность - указаны через наклонную черту общая и нижняя облачность в баллах и высота нижней границы облаков в метрах; квадратными скобками обозначены формы облаков: Ci - перистые, Cs - перисто-слоистые, Cc - перисто-кучевые, Ac - высококучевые, As - высокослоистые, Sc - слоисто-кучевые, Ns - слоисто-дождевые, Cu - кучевые, Cb - кучево-дождевые. Подробнее классификацию облаков см. в Атласе облаков (PDF).
T - Температура воздуха - температура, измеренная на высоте 2 м над землей.
Td - Температура точки росы - температура, при понижении до которой содержащийся в воздухе водяной пар достигнет насыщения.
f - Относительная влажность воздуха - влажноcть воздуха, измеренная на высоте 2 м над землей.
Te - Эффективная температура - температура, которую ощущает одетый по сезону человек в тени. Характеристика душности погоды. При расчете учитывается влияние влажности воздуха и скорости ветра на теплоощущения человека.
Tes - Эффективная температура на солнце - температура, которую ощущает человек, с поправкой на солнечный нагрев. Характеристика знойности погоды. Зависит от высоты солнца над горизонтом, облачности и скорости ветра. Ночью, в пасмурную погоду, а также при ветре 12 м/с и более поправка равна нулю.
P - Атмосферное давление - приведенное к уровню моря атмосферное давление.
Po - Атмосферное давление - измеренное на уровне метеостанции атмосферное давление.
Tmin - Минимальная температура - минимум температуры воздуха на высоте 2 м над землей.
Tmax - Максимальная температура - максимум температуры воздуха на высоте 2 м над землей.
R - Количество осадков - Количество выпавших осадков за период времени, мм. При наведении курсора мыши на число - период времени, за который выпало указанное количество осадков.
R24 - Количество осадков - Количество выпавших осадков за 24 часа, мм.
S - Снежный покров - Высота снежного покрова, см. При наведении курсора мыши на число - состояние снежного покрова и степень покрытия местности в баллах.